Regional Weather Roundup
Issued by NWS State College, PA

Home | Current Version | Previous Version | Text Only | Print | Product List | Glossary On
Versions: 1 2 3 4 5 6 7 8 9 10 11 12 13 14 15 16 17 18 19 20 21 22 23 24 25 26 27 28 29 30 31 32 33 34 35 36 37 38 39 40 41 42 43 44 45 46 47 48 49 50
000
ASUS41 KCTP 200603
RWRCTP

REGIONAL WEATHER ROUNDUP
NATIONAL WEATHER SERVICE STATE COLLEGE PA
200 AM EDT MON OCT 20 2014

Note: "fair" indicates few or no clouds below 12,000 feet with no
significant weather and/or obstructions to visibility.

* = STATION THAT DOES NOT REPORT PRECIPITATION /E.G. RAIN...SNOW...ETC/
    THUNDER OR FOG.

PAZ002>004-007>009-013>016-020>023-029>032-200700-
WESTERN PENNSYLVANIA

CITY           SKY/WX    TMP DP  RH WIND       PRES   REMARKS
ERIE           PTCLDY    45  35  68 S6        30.01F
MEADVILLE      MOCLDY    41  33  73 S6        30.02R
FRANKLIN*      MOCLDY    41  30  65 SW7       30.04F
NEW CASTLE       N/A     44  35  70 CALM      30.05F
BEAVER COUNTY  NOT AVBL
BUTLER*        MOCLDY    43  34  70 S5        30.07F
PITTSBURGH INT CLOUDY    42  34  73 S3        30.05F
PITTSBURGH     MOCLDY    42  33  70 S7        30.06S
INDIANA*       PTCLDY    39  34  81 CALM      30.10F
LATROBE        CLEAR     37  36  93 CALM      30.08F
WASHINGTON CO* MOCLDY    36  34  93 CALM      30.07F
$$

PAZ004>006-010>012-017>019-024>028-033>037-041-042-045-046-049>053-200700-
CENTRAL PENNSYLVANIA

CITY           SKY/WX    TMP DP  RH WIND       PRES   REMARKS
BRADFORD       CLOUDY    35  31  85 CALM      30.01S
DUBOIS         MOCLDY    40  31  70 CALM      30.03S
CLEARFIELD     MOCLDY    36  33  89 CALM      30.05F
JOHNSTOWN      MOCLDY    42  31  64 SW9       30.04F
ALTOONA        MOCLDY    41  35  79 SW8       30.06S
STATE COLLEGE  MOCLDY    41  33  72 SW3       30.05F
WILLIAMSPORT   PTCLDY    36  30  79 N6        30.07S
SELINSGROVE    MOCLDY    37  35  92 CALM      30.08S
FT INDIANTOWN  MOCLDY    38  38  99 CALM      30.09S
CAPITAL CITY   MOCLDY    42  35  76 CALM      30.09S
HARRISBURG     MOCLDY    43  37  79 E3        30.08S
YORK           MOCLDY    35  33  92 CALM      30.09S
$$

PAZ038>040-043-044-047-048-054-055-060>062-067>071-200700-
EASTERN PENNSYLVANIA

CITY           SKY/WX    TMP DP  RH WIND       PRES   REMARKS
SCRANTON       MOCLDY    35  29  78 CALM      30.05F
MOUNT POCONO   MOCLDY    35  27  72 NW6       30.01S
ALLENTOWN      MOCLDY    40  29  64 CALM      30.09R
QUAKERTOWN*    MOCLDY    32  32 100 CALM      30.10R
READING        MOCLDY    41  34  76 S3        30.09R
LANCASTER      MOCLDY    37  34  89 CALM      30.09S
COATESVILLE    MOCLDY    37  32  81 CALM      30.10R
POTTSTOWN      MOCLDY    34  31  88 CALM      30.12R
BLUE BELL      MOCLDY    34  34 100 CALM      30.10R
DOYLESTOWN     MOCLDY    35  31  85 CALM      30.10R
WILLOW GROVE   NOT AVBL
NORTH PHILA    MOCLDY    38  30  73 N5        30.12S
PHILADELPHIA   PTCLDY    45  31  58 CALM      30.12R
$$



USA.gov is the U.S. government's official web portal to all federal, state and local government web resources and services.